Weather History for Bryce Canyon, UT

Change the Weather History Date:

Friday, December 7, 2012

  Actual Average Record
Temperature  
Mean Temperature 31 °F -  
Max Temperature 43 °F 38 °F 56 °F (1977)
Min Temperature 19 °F 13 °F -11 °F (1978)
Degree Days  
Heating Degree Days 34    
Moisture  
Dew Point 22 °F    
Average Humidity 73    
Maximum Humidity 96    
Minimum Humidity 45    
Precipitation  
Precipitation 0.00 in - - ()
Sea Level Pressure  
Sea Level Pressure 29.94 in    
Wind  
Wind Speed 9 mph (WNW)    
Max Wind Speed 20 mph    
Max Gust Speed 24 mph    
Visibility 10 miles    
Events      
Averages and records for this station are not official NWS values.
T = Trace of Precipitation, MM = Missing Value Source: NWS Daily Summary

Daily Weather History Graph

Daily Weather History Graph

Search for Another Location

Airport:

Trip Planner

Search our weather history database for the weather conditions in past years. The results will help you decide how hot, cold, wet, or windy it might be!

Date:

Astronomy

Dec. 07, 2012 Rise Set
Actual Time 7:30 AM MST 5:09 PM MST
Civil Twilight 7:01 AM MST 5:38 PM MST
Nautical Twilight 6:29 AM MST 6:11 PM MST
Astronomical Twilight 5:57 AM MST 6:43 PM MST
Moon 1:00 AM MST (12/7) 1:03 PM MST (12/7)
Length of Visible Light 10h 37m
Length of Day
9h 38m
Last Quarter, 38% of the Moon is Illuminated
Dec 7
Last Quarter
Dec 13
New
Dec 19
First Quarter
Dec 28
Full
Jan 4
Last Quarter

Hourly Weather History & Observations

Time (MST) Temp. Windchill Dew Point Humidity Pressure Visibility Wind Dir Wind Speed Gust Speed Precip Events Conditions
12:53 AM 23.0 °F 13.9 °F 21.9 °F 96% 29.88 in 10.0 mi West 8.1 mph - N/A   Clear
1:53 AM 19.0 °F 13.9 °F 17.1 °F 92% 29.90 in 10.0 mi North 3.5 mph - N/A   Clear
2:53 AM 28.9 °F 19.8 °F 26.1 °F 89% 29.86 in 10.0 mi WNW 10.4 mph - N/A   Clear
3:53 AM 25.0 °F 14.8 °F 23.0 °F 92% 29.88 in 10.0 mi West 10.4 mph - N/A   Clear
4:28 AM 26.6 °F 16.8 °F 24.8 °F 93% 30.02 in 10.0 mi West 10.4 mph - N/A   Mostly Cloudy
4:53 AM 26.1 °F 16.8 °F 24.1 °F 92% 29.89 in 10.0 mi West 9.2 mph - N/A   Scattered Clouds
5:53 AM 21.9 °F 15.7 °F 19.9 °F 92% 29.97 in 10.0 mi NE 4.6 mph - N/A   Clear
6:53 AM 24.1 °F 19.7 °F 23.0 °F 96% 30.01 in 10.0 mi West 3.5 mph - N/A   Clear
7:53 AM 24.1 °F 17.0 °F 21.9 °F 91% 30.01 in 10.0 mi West 5.8 mph - N/A   Clear
8:53 AM 33.1 °F 26.1 °F 28.9 °F 85% 29.99 in 10.0 mi WNW 8.1 mph - N/A   Clear
9:53 AM 37.0 °F 33.3 °F 28.9 °F 73% 29.97 in 10.0 mi NW 4.6 mph - N/A   Clear
10:53 AM 39.9 °F 34.5 °F 27.0 °F 60% 29.96 in 10.0 mi NNE 8.1 mph - N/A   Clear
11:53 AM 42.1 °F 36.1 °F 25.0 °F 51% 29.96 in 10.0 mi NW 10.4 mph 16.1 mph N/A   Scattered Clouds
12:53 PM 43.0 °F 34.5 °F 23.0 °F 45% 29.94 in 10.0 mi WNW 19.6 mph 24.2 mph N/A   Clear
1:53 PM 43.0 °F 35.4 °F 23.0 °F 45% 29.95 in 10.0 mi NW 16.1 mph - N/A   Clear
2:53 PM 42.1 °F 33.9 °F 23.0 °F 47% 29.89 in 10.0 mi WNW 17.3 mph - N/A   Clear
3:53 PM 39.9 °F 31.8 °F 21.0 °F 47% 29.92 in 10.0 mi WNW 15.0 mph 23.0 mph N/A   Clear
4:53 PM 37.0 °F 28.1 °F 19.0 °F 48% 29.94 in 10.0 mi West 15.0 mph 23.0 mph N/A   Clear
7:53 PM 30.9 °F 19.8 °F 18.0 °F 59% 29.98 in 10.0 mi WNW 16.1 mph - N/A   Clear
8:53 PM 28.9 °F 22.8 °F 18.0 °F 64% 29.96 in 10.0 mi NW 5.8 mph - N/A   Clear
9:53 PM 28.0 °F 21.7 °F 17.1 °F 63% 29.94 in 10.0 mi NW 5.8 mph - N/A   Clear
10:53 PM 26.1 °F 20.5 °F 18.0 °F 71% 29.94 in 10.0 mi NNW 4.6 mph - N/A   Clear
11:53 PM 21.0 °F 16.2 °F 16.0 °F 81% 29.94 in 10.0 mi WNW 3.5 mph - N/A   Clear